Regional Weather Roundup
Issued by NWS

Home | Current Version | Previous Version | Graphics & Text | Print | Product List | Glossary On
Versions: 1 2 3 4 5 6 7 8 9 10 11 12 13 14 15 16 17 18 19 20 21 22 23 24 25 26 27 28 29 30 31 32 33 34 35 36 37 38 39 40 41 42 43 44 45 46 47 48 49 50
000
ASUS45 KTFX 280219
RWRMT
MONTANA REGIONAL WEATHER ROUNDUP
NATIONAL WEATHER SERVICE GREAT FALLS MT
800 PM MDT THU AUG 27 2015

NOTE: "FAIR" INDICATES FEW OR NO CLOUDS BELOW 12000 FEET WITH NO
SIGNIFICANT WEATHER AND/OR OBSTRUCTIONS TO VISIBILITY.

MTZ001>007-043-280300-
WEST OF THE DIVIDE

CITY           SKY/WX    TMP DP  RH WIND       PRES   REMARKS
KALISPELL      CLOUDY    79  38  22 W5        29.96R SMOKE
MISSOULA       CLOUDY    78  38  23 NW10      30.01R HAZE
BUTTE          MOCLDY    73  38  27 VRB5      30.16R
MULLAN PASS    CLEAR     65  36  34 VRB6      30.21F
DEER LODGE       N/A     70  41  35 NW7       30.14R VSB 1
EUREKA           N/A     81  37  21 S3        29.96S
HAMILTON         N/A     77  43  29 E7        30.05R
LIBBY            N/A     81  37  21 CALM      29.97S
PLAINS           N/A     85  41  21 SW3       29.99R
RONAN            N/A     80  43  27 W5        30.04R
THOMPSON FALLS   N/A     83  39  20 W5        30.01R
$$

MTZ008-052>055-280300-
SOUTHWEST MONTANA

CITY           SKY/WX    TMP DP  RH WIND       PRES   REMARKS
BOZEMAN        MOCLDY    65  52  62 SE10      30.11F
DILLON         MOCLDY    74  39  28 N3        30.12R
W YELLOWSTONE  CLOUDY    59  45  58 CALM      30.32R
THREE FORKS      N/A     69  47  45 SE3       30.08F
TWIN BRIDGES     N/A     75  42  30 S3        30.09S
$$

MTZ009-010-012-014-046-048-049-054-280300-
EAST SLOPES AND CENTRAL MONTANA

CITY           SKY/WX    TMP DP  RH WIND       PRES   REMARKS
CUT BANK       CLOUDY    76  36  23 W13       29.97S HAZE
GREAT FALLS    CLOUDY    80  39  23 SW14      29.95F HAZE
MALMSTROM AFB  MOCLDY    79  38  23 SW9       29.95S HAZE
HELENA         CLOUDY    81  39  22 SW8       30.01R
CONRAD           N/A     70  42  36 W5        30.01R
$$

MTZ011-013-016-021-045-047-050-051-280300-
NORTH CENTRAL MONTANA

CITY           SKY/WX    TMP DP  RH WIND       PRES   REMARKS
HAVRE          PTCLDY    75  51  43 SE7       29.88R HAZE
LEWISTOWN      CLOUDY    73  50  44 S8        30.02S HAZE
N BAR RANCH      N/A     72  48  43 CALM      30.07S
CHINOOK          N/A     73  59  60 S3        29.87S
FORT BENTON      N/A     82  34  17 N5        29.92R
$$

MTZ017>020-022>027-061-062-280300-
NORTHEAST MONTANA

CITY           SKY/WX    TMP DP  RH WIND       PRES   REMARKS
GLASGOW        PTCLDY    80  56  43 SE5       29.85S
JORDAN           N/A     80  50  34 W5        29.90S
SIDNEY         MOCLDY    73  64  73 CALM      29.88R
WOLF POINT     MOCLDY    78  63  59 CALM      29.85S
MALTA            N/A     77  55  46 CALM      29.85S
PLENTYWOOD       N/A     79  55  44 SE6       29.85F
POPLAR           N/A     81  54  39 E5        29.86S
SCOBEY           N/A     77  49  37 S5        29.86F
$$

MTZ028>42-056>058-280300-
SOUTHCENTRAL AND SOUTHEAST MONTANA

CITY           SKY/WX    TMP DP  RH WIND       PRES   REMARKS
BAKER          PTCLDY    74  59  59 E3        29.95S
BILLINGS       CLOUDY    73  45  36 W18G28    30.04S
LIVINGSTON     MOCLDY    75  41  29 NW36G44   30.14R
MILES CITY     CLOUDY    86  45  23 CALM      29.91S
EKALAKA          N/A     76  52  43 W2        29.97R
FORSYTH          N/A     82  48  30 W3        29.92R
LAUREL           N/A     72  44  36 SW14      30.04F
ROUNDUP          N/A     81  41  24 S13       29.93R
$$

REGIONAL REPORTS...DAKOTAS

CITY           SKY/WX    TMP DP  RH WIND       PRES   REMARKS
WILLISTON      MOCLDY    78  64  61 CALM      29.88R
MINOT          PTCLDY    71  64  78 CALM      29.86S
DICKINSON      MOCLDY    74  59  59 SE9       29.91R
BEACH            N/A     68  61  77 CALM      29.94S
CROSBY           N/A     75  63  64 S12       29.85S
BISMARCK       CLEAR     75  62  64 S9        29.91S
GRAND FORKS    PTCLDY    69  63  81 SE3       29.89S
FARGO          PTCLDY    70  65  84 SE5       29.90S
BUFFALO SD       N/A     71  57  61 S12       29.89S
RAPID CITY     CLEAR     67  61  81 S5        30.00S
$$

REGIONAL REPORTS...WYOMING/IDAHO/WASHINGTON

CITY           SKY/WX    TMP DP  RH WIND       PRES   REMARKS
GILLETTE       PTCLDY    68  49  50 W7        30.05R
SHERIDAN       CLOUDY    72  50  45 CALM      30.06S
BUFFALO WY     CLOUDY    73  41  31 N21G31    30.14R
CODY           CLOUDY    63  46  55 SW14      30.19F
YELLOWSTONE LA   N/A     49  47  93 CALM      30.43R
IDAHO FALLS    MOCLDY    76  48  37 E6        30.12F
SALMON         PTCLDY    77  43  29 N12       30.00R
BOISE          CLEAR     87  38  17 N5        30.00F
SPOKANE        MOCLDY    83  39  21 SW10      29.98F
$$

REGIONAL REPORTS...ALBERTA

CITY           SKY/WX    TMP DP  RH WIND       PRES   REMARKS
EDMONTON       CLEAR     73  52  46 W5        29.78S
CALGARY        MOCLDY    70  52  52 CALM      29.88S SMOKE
LETHBRIDGE     MOCLDY    77  39  25 W14       29.89S SMOKE
MEDICINE HAT   MOCLDY    77  54  44 E3        29.83S SMOKE
WATERTON GATE    N/A     73  37  27 W10G18      N/A
CARDSTON         N/A     77  36  22 W10G17      N/A
MILK RIVER       N/A     72  41  33 W7          N/A
ONEFOUR          N/A     77  36  22 SW3         N/A
$$

REGIONAL REPORTS...SASKATCHEWAN

CITY           SKY/WX    TMP DP  RH WIND       PRES   REMARKS
SWIFT CURRENT  CLEAR     70  54  56 NW5       29.85R HAZE
REGINA         MOCLDY    75  63  64 N7        29.78S SMOKE
SASKATOON      CLOUDY    68  61  77 W2        29.82F
CYPRESS HILLS    N/A     68  41  37 NW2         N/A
VAL MARIE        N/A     68  54  60 SW7         N/A
ROCKGLEN         N/A     70  55  60 SW9         N/A
ASSINIBOIA       N/A     73  54  49 W2          N/A
$$


USA.gov is the U.S. government's official web portal to all federal, state and local government web resources and services.